{"data":{"norad_id":66882,"intl_designator":"2025-283E","name":"STARLINK-35912","alt_names":[],"object_type":"PAYLOAD","status":"ACTIVE","operator":null,"country":"US","launch_date":"2025-12-04","launch_site_code":"AFWTR","launch_vehicle":null,"mission":null,"orbit_class":"UNKNOWN","rcs_meters":null,"size_class":null,"mass_kg":null,"dimensions":null,"purposes":["comms"],"wikipedia_slug":null,"has_3d_model":false,"image_url":null,"decayed_at":null,"tle_current":{"epoch":"2026-09-20T06:59:58.502976Z","epoch_age_seconds":102153,"freshness":"FRESH","line1":"1 66882U 25283E   26263.29164934  .00018401  00000+0  55424-3 0  9993","line2":"2 66882  53.1577 196.3632 0001302  88.1548 271.9604 15.34408860 45692","mean_motion":15.3440886,"eccentricity":0.0001302,"inclination_deg":53.1577,"raan_deg":196.3632,"arg_perigee_deg":88.1548,"mean_anomaly_deg":271.9604,"bstar":0.00055424,"rev_number":4569,"period_min":93.847216184609,"perigee_km":461.78623257603,"apogee_km":463.56758051729,"semimajor_km":6840.8139065467,"source":"CELESTRAK","updated_at":"2026-09-21T09:00:36.032757Z"}}}